QPF
0.00 0.00 0.00 0.00 0.00 0.00 0.00 0.00 0.00 0.00 0.00 0.00 0.00 0.00 0.00 0.00 0.00 0.00 0.00 0.00 0.00 0.00 0.00 0.00 0.00 0.00 0.00 0.00 0.00 0.00 0.00 0.00 0.00 0.00 0.00 0.00 0.00 0.00 0.00 0.00 0.00 0.00 0.00
0.00 0.00 0.00 0.00 0.00 0.00 0.00 0.00 0.00 0.00 0.00 0.00 0.00 0.00 0.00 0.00 0.00 0.00 0.00 0.00 0.00 0.00 0.00 0.00 0.00 0.00 0.00 0.00 0.00 0.00 0.00 0.00 0.00 0.00 0.00 0.00 0.00 0.00 0.00 0.00 0.00 0.00 0.00
0.00 0.00 0.00 0.00 0.00 0.00 0.00 0.00 0.00 0.00 0.00 0.00 0.00 0.00 0.00 0.00 0.00 0.00 0.00 0.00 0.00 0.00 0.00 0.00 0.00 0.00 0.00 0.00 0.00 0.00 0.00 0.00 0.00 0.00 0.00 0.00 0.00 0.00 0.00 0.00 0.00 0.00 0.00
0.00 0.00 0.00 0.00 0.00 0.00 0.00 0.00 0.00 0.00 0.00 0.00 0.00 0.00 0.00 0.00 0.00 0.00 0.00 0.00 0.00 0.00 0.00 0.00 0.00 0.01 0.00 0.00 0.00 0.00 0.00 0.00 0.00 0.00 0.00 0.00 0.00 0.00 0.00 0.00 0.00 0.00 0.00
0.00 0.00 0.00 0.00 0.00 0.00 0.00 0.00 0.00 0.00 0.00 0.00 0.00 0.00 0.00 0.00 0.00 0.00 0.00 0.00 0.00 0.00 0.00 0.01 0.00 0.00 0.01 0.00 0.00 0.00 0.00 0.00 0.00 0.00 0.00 0.00 0.00 0.00 0.00 0.00 0.00 0.00 0.00
0.00 0.00 0.00 0.00 0.00 0.00 0.00 0.00 0.00 0.00 0.00 0.00 0.00 0.00 0.00 0.00 0.00 0.00 0.00 0.00 0.00 0.00 0.00 0.00 0.00 0.00 0.01 0.00 0.00 0.00 0.00 0.00 0.00 0.00 0.00 0.00 0.00 0.00 0.00 0.00 0.00 0.00 0.00
0.00 0.00 0.00 0.00 0.00 0.00 0.00 0.00 0.00 0.00 0.00 0.00 0.00 0.00 0.00 0.00 0.00 0.00 0.00 0.00 0.00 0.00 0.00 0.00 0.00 0.00 0.01 0.00 0.00 0.00 0.00 0.00 0.00 0.00 0.00 0.00 0.00 0.00 0.00 0.00 0.00 0.00 0.00
0.00 0.00 0.00 0.00 0.00 0.00 0.00 0.00 0.00 0.00 0.00 0.00 0.00 0.00 0.00 0.00 0.00 0.00 0.00 0.00 0.00 0.00 0.00 0.00 0.00 0.00 0.00 0.01 0.00 0.00 0.00 0.00 0.00 0.00 0.00 0.00 0.00 0.00 0.00 0.00 0.00 0.00 0.00
0.00 0.00 0.00 0.00 0.00 0.00 0.00 0.00 0.00 0.00 0.00 0.00 0.00 0.00 0.00 0.00 0.00 0.00 0.00 0.00 0.00 0.00 0.00 0.00 0.00 0.00 0.00 0.01 0.00 0.00 0.00 0.00 0.00 0.00 0.00 0.00 0.00 0.00 0.00 0.00 0.00 0.00 0.00
0.00 0.00 0.00 0.00 0.00 0.00 0.00 0.00 0.00 0.00 0.00 0.00 0.00 0.00 0.00 0.00 0.00 0.00 0.00 0.00 0.00 0.00 0.00 0.00 0.00 0.00 0.00 0.00 0.00 0.00 0.00 0.00 0.00 0.00 0.00 0.00 0.00 0.00 0.00 0.00 0.00 0.00 0.00
0.00 0.00 0.00 0.00 0.00 0.00 0.00 0.00 0.00 0.00 0.00 0.00 0.00 0.00 0.00 0.00 0.00 0.00 0.00 0.00 0.00 0.00 0.00 0.00 0.00 0.00 0.01 0.00 0.00 0.00 0.00 0.00 0.00 0.00 0.00 0.00 0.00 0.00 0.00 0.00 0.00 0.00 0.00
0.00 0.00 0.00 0.00 0.00 0.00 0.00 0.00 0.00 0.00 0.00 0.00 0.00 0.00 0.00 0.00 0.00 0.00 0.00 0.00 0.00 0.00 0.00 0.00 0.00 0.00 0.00 0.00 0.01 0.00 0.00 0.00 0.00 0.00 0.00 0.00 0.00 0.00 0.00 0.00 0.00 0.00 0.00
0.00 0.00 0.00 0.00 0.00 0.00 0.00 0.00 0.00 0.00 0.00 0.00 0.00 0.00 0.00 0.00 0.00 0.00 0.00 0.00 0.00 0.00 0.00 0.00 0.00 0.00 0.01 0.02 0.01 0.00 0.00 0.00 0.00 0.00 0.00 0.00 0.00 0.00 0.00 0.00 0.00 0.00 0.00
0.00 0.00 0.00 0.00 0.00 0.00 0.00 0.00 0.00 0.00 0.00 0.00 0.00 0.00 0.00 0.00 0.00 0.00 0.00 0.00 0.00 0.00 0.00 0.00 0.00 0.00 0.00 0.01 0.01 0.00 0.01 0.00 0.00 0.00 0.00 0.00 0.00 0.00 0.00 0.00 0.00 0.00 0.00
0.00 0.00 0.00 0.00 0.00 0.00 0.00 0.00 0.00 0.00 0.00 0.00 0.00 0.00 0.00 0.00 0.00 0.00 0.00 0.00 0.00 0.00 0.00 0.00 0.00 0.00 0.00 0.00 0.01 0.01 0.01 0.00 0.00 0.00 0.00 0.00 0.00 0.00 0.00 0.00 0.00 0.00 0.00
0.00 0.00 0.00 0.00 0.00 0.00 0.00 0.00 0.00 0.00 0.00 0.00 0.00 0.00 0.00 0.00 0.00 0.00 0.00 0.00 0.00 0.00 0.00 0.00 0.00 0.00 0.00 0.00 0.00 0.01 0.00 0.00 0.00 0.00 0.00 0.00 0.00 0.00 0.00 0.00 0.00 0.00 0.00
0.00 0.00 0.00 0.00 0.00 0.00 0.00 0.00 0.00 0.00 0.00 0.00 0.00 0.00 0.00 0.00 0.00 0.00 0.00 0.00 0.00 0.00 0.00 0.00 0.00 0.00 0.00 0.00 0.00 0.00 0.00 0.00 0.00 0.00 0.00 0.00 0.00 0.00 0.00 0.00 0.00 0.00 0.00
0.00 0.00 0.00 0.00 0.00 0.00 0.00 0.00 0.00 0.00 0.00 0.00 0.00 0.00 0.00 0.00 0.00 0.00 0.00 0.00 0.00 0.00 0.00 0.00 0.00 0.00 0.00 0.00 0.00 0.00 0.00 0.00 0.00 0.00 0.00 0.00 0.00 0.00 0.00 0.00 0.00 0.00 0.00
0.00 0.00 0.00 0.00 0.00 0.00 0.00 0.00 0.00 0.00 0.00 0.00 0.00 0.00 0.00 0.00 0.00 0.00 0.00 0.00 0.00 0.00 0.00 0.00 0.01 0.01 0.01 0.00 0.00 0.00 0.00 0.00 0.00 0.00 0.00 0.00 0.00 0.00 0.00 0.00 0.00 0.00 0.00
0.00 0.00 0.00 0.00 0.00 0.00 0.00 0.00 0.00 0.00 0.00 0.00 0.00 0.00 0.00 0.00 0.00 0.00 0.00 0.00 0.00 0.00 0.00 0.00 0.00 0.01 0.01 0.00 0.00 0.00 0.00 0.00 0.00 0.00 0.00 0.00 0.00 0.00 0.00 0.00 0.00 0.00 0.00
0.01 0.01 0.00 0.00 0.00 0.00 0.00 0.00 0.00 0.00 0.00 0.00 0.00 0.00 0.00 0.00 0.00 0.00 0.00 0.00 0.00 0.00 0.00 0.00 0.01 0.01 0.00 0.00 0.00 0.00 0.00 0.00 0.00 0.00 0.00 0.00 0.00 0.00 0.00 0.00 0.00 0.00 0.00
0.01 0.01 0.00 0.00 0.00 0.00 0.00 0.00 0.00 0.00 0.00 0.00 0.00 0.00 0.00 0.00 0.00 0.00 0.00 0.00 0.00 0.00 0.00 0.01 0.01 0.00 0.00 0.00 0.00 0.00 0.00 0.00 0.00 0.00 0.00 0.00 0.00 0.00 0.00 0.00 0.00 0.00 0.00
0.00 0.00 0.00 0.00 0.00 0.00 0.00 0.00 0.01 0.00 0.00 0.00 0.00 0.00 0.00 0.00 0.00 0.00 0.00 0.00 0.00 0.00 0.00 0.00 0.00 0.00 0.00 0.00 0.00 0.00 0.00 0.00 0.00 0.00 0.00 0.00 0.00 0.00 0.00 0.00 0.00 0.00 0.00
0.00 0.00 0.00 0.00 0.00 0.00 0.00 0.00 0.00 0.00 0.00 0.00 0.00 0.00 0.00 0.00 0.00 0.00 0.00 0.00 0.00 0.00 0.00 0.01 0.00 0.00 0.00 0.00 0.00 0.00 0.00 0.00 0.00 0.00 0.00 0.00 0.00 0.00 0.00 0.00 0.00 0.00 0.00
0.00 0.00 0.00 0.00 0.00 0.00 0.00 0.00 0.00 0.00 0.00 0.00 0.00 0.00 0.00 0.00 0.00 0.00 0.00 0.00 0.00 0.00 0.00 0.00 0.01 0.00 0.00 0.00 0.00 0.00 0.00 0.00 0.00 0.00 0.00 0.00 0.00 0.00 0.00 0.00 0.00 0.00 0.00
0.00 0.00 0.00 0.00 0.00 0.00 0.00 0.00 0.00 0.00 0.00 0.01 0.04 0.02 0.01 0.02 0.00 0.00 0.00 0.00 0.00 0.00 0.00 0.00 0.00 0.00 0.00 0.00 0.00 0.00 0.00 0.00 0.00 0.00 0.00 0.00 0.00 0.00 0.00 0.00 0.00 0.00 0.00
MSLP
1012.50 1013.06 1013.60 1014.07 1014.54 1014.97 1015.43 1015.84 1016.25 1016.63 1016.89 1017.10 1017.31 1017.54 1017.66 1017.90 1018.31 1018.71 1019.12 1019.53 1019.84 1020.20 1020.61 1020.79 1020.82 1020.93 1021.03 1020.98 1020.89 1021.00 1021.18 1021.31 1021.30 1020.93 1020.98 1020.54 1020.35 1019.98 1019.77 1019.77 1019.59 1019.43 1018.97
1011.49 1012.35 1012.81 1013.35 1013.92 1014.40 1014.78 1015.21 1015.68 1016.13 1016.53 1016.81 1016.99 1017.30 1017.48 1017.72 1018.03 1018.39 1018.81 1019.16 1019.55 1019.93 1020.12 1020.36 1020.41 1020.53 1020.96 1021.25 1021.23 1021.23 1021.22 1021.27 1021.38 1021.17 1020.95 1020.61 1020.27 1020.01 1020.05 1019.95 1019.61 1019.29 1018.97
1010.75 1011.55 1012.21 1012.67 1013.21 1013.54 1013.92 1014.49 1015.04 1015.51 1015.92 1016.34 1016.63 1016.84 1016.96 1017.25 1017.66 1017.95 1018.26 1018.72 1019.14 1019.40 1019.53 1019.95 1020.08 1020.86 1021.15 1021.51 1021.65 1021.49 1021.48 1021.40 1021.45 1021.26 1020.95 1021.01 1020.51 1020.35 1020.03 1019.61 1019.11 1018.75 1018.36
1009.83 1010.64 1011.34 1011.86 1012.19 1012.61 1013.14 1013.71 1014.25 1014.75 1015.24 1015.62 1015.88 1016.10 1016.38 1016.70 1017.10 1017.47 1017.79 1018.18 1018.65 1018.70 1018.93 1019.26 1019.93 1020.50 1020.48 1020.52 1020.86 1021.32 1021.58 1021.61 1021.41 1021.47 1021.43 1021.19 1020.99 1020.35 1020.08 1019.68 1018.80 1018.51 1018.09
1008.99 1009.77 1010.37 1010.79 1011.27 1011.91 1012.60 1012.97 1013.46 1013.96 1014.35 1014.70 1015.06 1015.38 1015.73 1016.09 1016.39 1016.81 1017.12 1017.52 1017.94 1018.10 1018.44 1018.85 1019.33 1019.45 1019.48 1019.89 1020.42 1020.65 1020.97 1020.85 1020.99 1021.32 1021.00 1020.97 1020.67 1020.18 1019.84 1019.73 1019.29 1018.90 1018.21
1008.21 1008.75 1009.42 1010.13 1010.65 1011.17 1011.74 1012.31 1012.74 1013.09 1013.55 1013.99 1014.25 1014.54 1014.92 1015.19 1015.39 1015.75 1016.16 1016.65 1016.98 1017.33 1017.78 1018.19 1018.60 1019.00 1019.21 1019.66 1020.03 1020.02 1020.07 1020.24 1020.50 1020.66 1020.70 1020.52 1020.12 1020.09 1019.83 1019.67 1019.45 1019.12 1018.45
1007.21 1008.02 1008.69 1009.28 1009.89 1010.39 1010.88 1011.54 1011.97 1012.35 1012.81 1013.07 1013.41 1013.75 1014.05 1014.22 1014.49 1014.92 1015.26 1015.72 1016.09 1016.45 1016.99 1017.54 1018.17 1018.40 1018.83 1018.99 1019.07 1019.13 1019.33 1019.56 1019.75 1019.75 1019.69 1019.88 1019.80 1019.35 1019.42 1019.28 1019.43 1019.24 1018.66
1006.42 1007.02 1007.72 1008.45 1008.95 1009.59 1010.19 1010.59 1011.04 1011.52 1011.79 1012.15 1012.49 1012.80 1013.18 1013.26 1013.66 1014.11 1014.45 1014.96 1015.17 1015.63 1016.03 1016.60 1016.91 1017.47 1017.71 1018.01 1018.31 1018.28 1018.52 1018.92 1018.91 1019.14 1019.35 1019.01 1018.77 1018.93 1019.19 1019.18 1019.17 1018.93 1018.22
1005.48 1006.18 1006.75 1007.37 1008.07 1008.72 1009.24 1009.64 1010.09 1010.63 1010.95 1011.22 1011.46 1011.97 1012.26 1012.32 1012.78 1013.19 1013.85 1014.30 1014.65 1014.72 1015.11 1015.52 1015.95 1016.47 1016.99 1017.59 1017.74 1018.14 1018.79 1018.72 1018.79 1018.60 1018.68 1018.80 1018.66 1018.50 1018.57 1018.76 1018.55 1018.44 1017.73
1004.48 1005.01 1005.68 1006.19 1006.94 1007.66 1008.09 1008.61 1009.06 1009.57 1009.90 1010.33 1010.65 1010.85 1011.02 1011.33 1011.89 1012.32 1012.95 1013.41 1013.64 1013.94 1014.35 1014.66 1014.85 1015.33 1015.77 1016.12 1016.73 1017.83 1018.58 1018.45 1018.81 1018.88 1018.84 1018.59 1018.57 1018.31 1018.11 1018.05 1017.90 1017.67 1017.56
1003.21 1004.10 1004.97 1005.34 1005.73 1006.27 1007.00 1007.64 1008.20 1008.72 1009.17 1009.49 1009.77 1009.92 1010.09 1010.46 1011.01 1011.44 1011.99 1012.36 1012.42 1012.80 1012.95 1013.32 1013.69 1014.17 1014.85 1015.49 1016.40 1017.15 1017.60 1017.67 1017.91 1018.72 1018.80 1018.40 1018.24 1018.27 1017.95 1017.89 1017.63 1017.50 1017.33
1003.06 1003.73 1004.27 1004.54 1004.96 1005.59 1006.17 1006.85 1007.43 1007.94 1008.43 1008.79 1009.01 1009.09 1009.22 1009.57 1010.25 1010.81 1011.21 1011.01 1010.61 1010.89 1011.41 1011.73 1012.16 1013.04 1014.07 1015.37 1016.47 1016.78 1017.09 1017.69 1017.91 1017.63 1017.72 1017.97 1017.80 1017.66 1017.52 1017.44 1017.31 1017.16 1016.71
1002.52 1002.97 1003.71 1004.23 1004.61 1005.02 1005.55 1006.26 1006.98 1007.37 1007.62 1007.95 1008.17 1008.20 1008.39 1008.72 1009.32 1009.81 1009.59 1009.45 1010.37 1010.33 1010.21 1010.53 1011.33 1012.28 1013.03 1013.72 1013.90 1015.59 1016.50 1016.88 1016.64 1017.35 1017.20 1017.00 1017.31 1017.43 1017.37 1017.11 1017.01 1016.79 1016.50
1001.87 1002.27 1002.84 1003.47 1004.01 1004.43 1004.74 1005.17 1005.89 1006.42 1006.73 1006.95 1007.15 1007.26 1007.54 1007.96 1008.44 1008.92 1008.88 1009.47 1009.83 1010.23 1010.23 1010.44 1010.41 1009.28 1011.63 1012.49 1014.50 1014.90 1015.18 1015.47 1016.67 1017.03 1016.85 1016.40 1016.70 1017.16 1017.16 1017.18 1016.94 1016.45 1016.26
1001.49 1002.07 1002.47 1002.79 1003.20 1003.64 1003.92 1004.00 1004.26 1004.50 1004.87 1005.31 1005.50 1005.89 1006.29 1006.58 1006.95 1007.17 1007.52 1008.25 1008.55 1008.78 1009.66 1010.66 1012.07 1013.09 1013.52 1014.21 1014.40 1014.78 1015.05 1015.47 1015.31 1015.45 1016.16 1016.06 1016.14 1016.75 1016.84 1017.01 1016.79 1016.41 1016.06
1000.65 1001.09 1001.50 1002.01 1002.47 1002.86 1003.20 1003.49 1003.63 1003.94 1004.05 1004.25 1004.54 1004.78 1004.96 1005.07 1005.68 1006.39 1006.77 1007.08 1007.44 1008.20 1009.51 1010.20 1010.83 1011.86 1012.74 1013.23 1013.34 1014.28 1015.11 1015.25 1015.21 1015.71 1015.35 1015.69 1015.73 1016.35 1016.59 1016.61 1016.65 1016.37 1016.13
1000.08 1000.36 1000.85 1001.46 1001.92 1002.25 1002.55 1002.90 1003.37 1004.02 1004.10 1004.27 1004.34 1004.43 1004.51 1004.36 1004.89 1005.37 1006.04 1007.02 1007.89 1008.57 1008.74 1009.24 1009.93 1010.82 1011.31 1012.04 1012.41 1013.09 1013.69 1014.13 1014.45 1015.27 1015.52 1014.93 1015.41 1016.09 1016.47 1016.21 1016.21 1016.13 1016.05
999.97 999.97 1000.13 1000.52 1000.89 1001.38 1001.79 1002.08 1002.28 1002.79 1003.30 1003.46 1003.76 1003.96 1004.06 1004.33 1004.41 1004.76 1005.97 1007.23 1008.52 1008.62 1008.48 1008.69 1009.06 1009.38 1009.95 1010.69 1011.29 1011.96 1012.64 1013.67 1014.04 1015.07 1015.37 1015.17 1015.50 1015.99 1016.18 1016.13 1016.01 1015.95 1016.01
1000.52 1000.26 1000.09 999.41 1000.08 1000.57 1000.94 1001.37 1001.66 1001.78 1002.18 1002.63 1003.47 1003.94 1004.24 1004.37 1004.52 1005.29 1005.79 1005.99 1006.78 1007.43 1007.46 1007.65 1008.05 1008.43 1008.85 1009.41 1009.88 1010.95 1011.73 1012.73 1013.21 1014.12 1014.78 1014.91 1015.13 1015.71 1016.02 1016.05 1015.87 1015.73 1015.55
1001.87 1000.60 1000.28 999.93 998.97 999.82 1000.49 1000.87 1001.20 1001.34 1001.57 1001.96 1002.45 1002.66 1003.73 1004.48 1004.85 1005.15 1005.41 1005.36 1005.65 1005.95 1006.29 1006.62 1006.95 1007.51 1007.97 1008.57 1009.36 1010.31 1011.11 1011.95 1012.71 1013.14 1013.23 1013.64 1014.41 1015.31 1015.54 1015.77 1015.81 1015.59 1015.48
1002.65 1001.02 1000.41 1000.53 999.09 999.40 1000.13 1000.37 1000.57 1000.69 1000.84 1001.12 1001.41 1001.66 1001.89 1002.83 1003.24 1003.72 1004.27 1004.57 1004.71 1004.93 1005.27 1005.83 1006.45 1006.95 1007.54 1008.22 1008.79 1009.44 1010.02 1011.25 1012.42 1013.02 1013.39 1013.67 1014.39 1014.87 1015.15 1015.55 1015.67 1015.66 1015.55
1002.05 1001.36 1000.58 1000.55 1000.11 999.97 1000.12 1000.32 1000.31 1000.29 1000.28 1000.50 1000.72 1001.23 1001.65 1002.44 1002.60 1002.90 1003.25 1003.49 1003.72 1004.24 1004.83 1005.39 1005.95 1006.41 1006.81 1007.39 1008.12 1008.77 1009.75 1010.81 1011.97 1012.54 1012.68 1012.97 1013.99 1014.50 1014.71 1015.32 1015.47 1015.64 1015.61
1003.13 1002.57 1001.99 1001.71 1001.28 1001.07 1000.49 1000.39 1000.33 999.93 999.74 999.74 999.96 1000.63 1001.28 1001.72 1002.08 1002.33 1002.38 1002.80 1003.34 1003.89 1004.51 1005.10 1005.55 1005.98 1006.39 1006.84 1007.70 1008.09 1008.51 1009.34 1010.19 1010.97 1012.31 1012.49 1013.60 1013.95 1014.07 1014.70 1015.17 1015.32 1015.36
1003.68 1003.43 1003.53 1003.41 1002.87 1002.23 1001.97 1001.53 1000.44 1000.02 999.89 999.70 999.97 1000.25 1000.65 1000.94 1001.38 1001.65 1001.75 1002.31 1002.95 1003.50 1004.01 1004.51 1004.91 1005.37 1005.81 1006.55 1007.25 1007.02 1007.00 1007.95 1009.19 1010.15 1010.95 1011.89 1012.63 1013.52 1013.64 1014.17 1014.65 1014.89 1015.17
1005.64 1005.67 1005.59 1005.33 1004.90 1004.25 1003.47 1002.55 1001.44 1000.33 1000.03 999.98 1000.07 1000.14 1000.49 1000.89 1001.14 1001.17 1001.41 1001.89 1002.56 1003.07 1003.47 1003.96 1004.39 1004.68 1005.06 1005.44 1005.98 1006.15 1006.75 1007.99 1008.63 1009.86 1011.17 1011.82 1012.35 1013.08 1013.38 1013.71 1014.04 1014.53 1014.81
1007.76 1007.53 1006.87 1006.19 1005.72 1005.22 1004.59 1003.81 1003.10 1002.13 1001.08 1000.81 1000.54 1000.56 1000.81 1000.97 1001.14 1000.91 1001.10 1001.61 1002.17 1002.59 1002.95 1003.44 1003.85 1004.07 1004.22 1004.75 1005.70 1006.50 1007.73 1008.33 1009.48 1009.50 1010.61 1011.36 1011.93 1012.68 1013.21 1013.58 1013.97 1014.31 1014.73
Thickness
5808 5807 5806 5805 5803 5802 5800 5798 5796 5794 5792 5791 5791 5790 5788 5786 5782 5778 5773 5768 5764 5758 5752 5747 5743 5739 5735 5731 5727 5721 5713 5706 5701 5698 5691 5689 5684 5680 5675 5669 5663 5656 5652
5814 5810 5810 5809 5807 5804 5804 5802 5800 5796 5794 5793 5793 5791 5789 5787 5784 5780 5775 5771 5765 5758 5755 5750 5747 5742 5734 5727 5723 5718 5712 5705 5699 5694 5689 5687 5683 5677 5670 5663 5657 5653 5647
5819 5814 5812 5812 5810 5809 5809 5807 5803 5800 5798 5795 5795 5793 5792 5790 5785 5782 5779 5773 5767 5762 5759 5753 5749 5738 5730 5722 5716 5713 5707 5702 5696 5692 5689 5680 5678 5671 5666 5662 5657 5653 5648
5824 5821 5817 5816 5817 5815 5813 5811 5807 5804 5801 5799 5799 5798 5796 5792 5789 5785 5782 5777 5770 5768 5763 5758 5748 5739 5735 5730 5722 5711 5703 5696 5692 5686 5680 5675 5668 5666 5662 5657 5655 5648 5641
5827 5824 5824 5823 5822 5819 5814 5814 5812 5809 5807 5805 5802 5801 5799 5796 5794 5790 5786 5781 5774 5772 5766 5759 5751 5747 5742 5731 5722 5714 5705 5700 5693 5683 5679 5671 5667 5665 5660 5651 5645 5637 5631
5830 5829 5828 5825 5823 5822 5818 5815 5815 5814 5811 5808 5807 5805 5802 5801 5800 5796 5793 5787 5781 5776 5769 5762 5755 5749 5742 5733 5723 5716 5708 5700 5692 5684 5677 5670 5666 5659 5652 5645 5636 5629 5625
5834 5831 5828 5827 5825 5823 5822 5818 5817 5816 5814 5813 5811 5809 5806 5807 5805 5800 5797 5793 5787 5781 5773 5764 5756 5752 5742 5735 5730 5722 5710 5701 5694 5687 5681 5671 5662 5658 5650 5641 5627 5618 5613
5834 5834 5833 5829 5829 5826 5823 5822 5820 5819 5818 5816 5814 5813 5811 5812 5808 5803 5800 5797 5791 5785 5777 5769 5763 5755 5748 5739 5729 5723 5711 5702 5695 5686 5677 5672 5666 5656 5643 5633 5623 5613 5607
5837 5836 5836 5834 5831 5828 5825 5825 5823 5821 5820 5820 5820 5816 5815 5816 5811 5807 5801 5797 5792 5788 5781 5774 5768 5760 5749 5737 5730 5718 5703 5699 5691 5684 5676 5668 5660 5651 5640 5629 5622 5611 5607
5841 5843 5843 5841 5836 5831 5830 5828 5827 5825 5824 5822 5821 5822 5822 5821 5814 5809 5803 5800 5794 5788 5782 5777 5772 5765 5755 5745 5734 5718 5702 5697 5687 5677 5669 5662 5653 5645 5637 5627 5618 5609 5597
5846 5845 5843 5843 5842 5840 5834 5830 5828 5826 5825 5824 5823 5825 5825 5824 5818 5811 5806 5804 5801 5793 5789 5785 5779 5769 5758 5745 5730 5716 5707 5697 5687 5673 5664 5657 5648 5637 5629 5620 5610 5600 5588
5839 5840 5840 5842 5841 5839 5835 5830 5828 5827 5824 5824 5824 5825 5827 5826 5819 5810 5805 5807 5808 5802 5797 5794 5786 5771 5757 5738 5721 5713 5704 5691 5679 5676 5668 5654 5644 5637 5628 5616 5605 5593 5583
5835 5837 5834 5834 5835 5836 5832 5827 5822 5824 5825 5824 5824 5825 5827 5827 5822 5813 5807 5809 5804 5804 5803 5797 5785 5770 5757 5745 5734 5716 5702 5689 5686 5670 5665 5659 5644 5633 5624 5614 5601 5590 5577
5831 5832 5832 5831 5830 5831 5833 5833 5827 5825 5826 5827 5827 5827 5827 5824 5822 5820 5814 5808 5805 5800 5797 5790 5786 5785 5764 5752 5727 5716 5706 5695 5676 5666 5659 5657 5645 5631 5622 5609 5597 5588 5575
5827 5826 5828 5829 5829 5829 5831 5834 5835 5838 5838 5835 5836 5834 5830 5829 5830 5826 5821 5815 5810 5805 5793 5780 5763 5752 5739 5728 5719 5711 5702 5692 5685 5675 5661 5653 5646 5631 5620 5606 5595 5585 5575
5829 5828 5828 5828 5828 5828 5828 5829 5831 5832 5833 5836 5836 5838 5839 5838 5833 5824 5817 5813 5808 5798 5785 5778 5769 5754 5741 5730 5723 5709 5696 5689 5681 5669 5663 5650 5643 5629 5618 5606 5592 5582 5570
5828 5829 5829 5826 5826 5826 5828 5827 5826 5826 5826 5827 5829 5830 5831 5837 5829 5824 5817 5805 5796 5786 5786 5781 5771 5756 5746 5732 5724 5712 5701 5692 5680 5667 5657 5651 5637 5625 5614 5606 5594 5580 5568
5824 5824 5829 5829 5830 5827 5826 5826 5830 5830 5830 5833 5828 5827 5826 5823 5822 5818 5806 5793 5783 5779 5781 5775 5769 5761 5748 5734 5725 5713 5702 5688 5678 5660 5649 5641 5632 5620 5611 5602 5591 5578 5565
5813 5819 5823 5833 5828 5827 5826 5825 5826 5829 5830 5829 5823 5818 5812 5809 5808 5802 5799 5802 5791 5781 5778 5775 5767 5759 5748 5736 5728 5713 5702 5689 5675 5661 5648 5638 5626 5616 5605 5597 5588 5576 5566
5793 5805 5812 5821 5833 5825 5819 5818 5817 5819 5821 5821 5820 5823 5807 5803 5802 5796 5793 5795 5790 5784 5778 5773 5765 5756 5746 5735 5723 5710 5699 5687 5674 5664 5655 5640 5631 5616 5605 5595 5585 5577 5566
5775 5794 5800 5803 5819 5820 5815 5813 5813 5814 5815 5815 5817 5819 5812 5809 5805 5798 5789 5787 5785 5781 5775 5767 5757 5749 5740 5729 5719 5709 5701 5685 5668 5656 5643 5632 5626 5615 5605 5592 5582 5573 5562
5769 5778 5787 5792 5796 5801 5803 5803 5803 5804 5807 5807 5809 5806 5794 5797 5797 5792 5786 5782 5779 5774 5766 5757 5750 5744 5737 5727 5716 5707 5694 5678 5663 5650 5646 5637 5627 5614 5605 5591 5581 5571 5560
5749 5756 5762 5767 5775 5778 5786 5789 5790 5794 5798 5801 5803 5795 5789 5787 5787 5783 5780 5775 5771 5765 5756 5748 5743 5736 5729 5721 5710 5703 5694 5681 5668 5657 5638 5634 5623 5614 5607 5593 5581 5571 5561
5731 5737 5739 5742 5748 5756 5759 5764 5776 5780 5783 5787 5786 5783 5780 5779 5777 5773 5771 5766 5760 5755 5749 5742 5738 5730 5723 5714 5704 5702 5697 5683 5669 5661 5645 5632 5623 5611 5605 5593 5583 5573 5561
5699 5701 5705 5711 5717 5724 5731 5739 5751 5763 5768 5768 5767 5768 5766 5763 5763 5763 5760 5756 5750 5746 5741 5735 5731 5725 5719 5713 5705 5699 5689 5675 5668 5652 5635 5628 5619 5609 5602 5593 5586 5573 5563
5664 5670 5678 5687 5694 5700 5707 5715 5721 5730 5741 5744 5748 5749 5746 5746 5746 5749 5748 5744 5740 5737 5733 5727 5722 5718 5714 5707 5696 5687 5675 5667 5653 5649 5636 5626 5618 5608 5598 5589 5581 5573 5561